Regional Weather Roundup
Issued by NWS Northern Indiana

Home | Current Version | Previous Version | Text Only | Print | Product List | Glossary Off
Versions: 1 2 3 4 5 6 7 8 9 10 11 12 13 14 15 16 17 18 19 20 21 22 23 24 25 26 27 28 29 30 31 32 33 34 35 36 37 38 39 40 41 42 43 44 45 46 47 48 49 50

000
ASUS43 KIWX 250800
RWRIWX

KIWX WEATHER ROUNDUP
NATIONAL WEATHER SERVICE NORTHERN INDIANA
400 AM EDT SAT OCT 25 2014

NOTE: "FAIR" INDICATES FEW OR NO CLOUDS BELOW 12,000 FEET WITH NO
SIGNIFICANT WEATHER AND/OR OBSTRUCTIONS TO VISIBILITY.

* THESE STATIONS ARE NOT UNDER NWS QUALITY CONTROL. THEY ALSO MAY NOT
  REPORT WEATHER SUCH AS PRECIPITATION OR FOG.

INZ001>027-250900-
NORTHERN INDIANA

CITY           SKY/WX    TMP DP  RH WIND       PRES   REMARKS
GARY*          PTCLDY    58  53  82 CALM      29.90F
SOUTH BEND     CLOUDY    56  50  80 SW8       29.92F
GOSHEN         CLOUDY    55  51  86 S8        29.91F
ANGOLA*        MOCLDY    45  43  93 CALM      29.92F
FORT WAYNE     CLOUDY    51  49  92 SW9       29.95F
PERU/GRISSOM   MOCLDY    54  54 100 S7        29.94F

$$
INZ028>050-250900-
CENTRAL INDIANA

CITY           SKY/WX    TMP DP  RH WIND       PRES   REMARKS
LAFAYETTE      CLOUDY    56  52  86 S5        29.94F
KOKOMO*        MOCLDY    54  48  82 S7        29.96F
MUNCIE*        PTCLDY    53  49  86 SW7       29.98F
INDIANAPOLIS   MOCLDY    51  48  89 S5        29.97F

$$
MIZ043>046-050>051-056>058-064>065-071>073-077>080-250900-
SOUTHWEST LOWER MICHIGAN

CITY           SKY/WX    TMP DP  RH WIND       PRES   REMARKS
BATTLE CREEK   CLOUDY    51  48  89 S8        29.89F
BENTON HARBOR  PTCLDY    53  48  83 SW5       29.89F
COLDWATER*     CLOUDY    53  51  93 SW5       29.91F
HILLSDALE*     MOCLDY    52  52  99 SW5       29.91F
HOLLAND        CLOUDY    58  50  75 SW9       29.87F
GRAND RAPIDS   CLOUDY    53  49  86 S6        29.86F FOG
KALAMAZOO      CLOUDY    52  49  89 S6        29.89F FOG
STURGIS*       CLOUDY    52  50  93 S5        29.90F
THREE RIVERS*  CLOUDY    52  50  93 S5        29.90F

$$
OHZ001>008-015>018-024>025-250900-
NORTHWEST OHIO

CITY           SKY/WX    TMP DP  RH WIND       PRES   REMARKS
DEFIANCE       MOCLDY    49  47  93 SW5       29.94F FOG
FINDLAY        MOCLDY    49  46  90 S5        29.95F
TOLEDO EXPRESS MOCLDY    49  47  93 SW7       29.92F FOG
TOLEDO METCALF MOCLDY    48  44  86 SW6       29.94F FOG
LIMA           MOCLDY    52  46  80 SW7       29.97S

$$
AND FOR LAKE MICHIGAN COASTAL AND OPEN LAKE BUOY OBSERVATIONS

STATION/POSITION TEMP    WIND        PRES    VSBY  WAVE
                 AIR SEA DIR/SP/G                  HT/PER
                 (F)     (DEG/KT/KT) (MB)    (MI)  (FT/S)
CALUMET HARBOR    58     200/  7/  9 1011.1F
MICHIGAN CITY     59     190/ 11/ 15   N/A
SAINT JOSEPH      60                 1012.9S
SOUTH LAKE BUOY   58 54  210/ 12/ 14 1011.2F         1/ 3

$$
&&



USA.gov is the U.S. government's official web portal to all federal, state and local government web resources and services.